PBO Station Position Time Series. Reference Frame : NAM14
Format Version,1.1.0
4-character ID,SATS
Station name,SATS_GPS
Begin Date, 1997-05-23
End Date, 2003-04-16
Release Date, 2021-02-19
Reference position, 46.9656531044 North Latitude, -123.5412291968 East Longitude, -7.67527 meters elevation,
Date, North (mm), East (mm), Vertical (mm), North Std. Deviation (mm), East Std. Deviation (mm),              Vertical Std. Deviation (mm), Quality,
1997-05-23,0.00, 0.00, 0.00, 2.77, 2.11, 9.23, repro,
1997-05-24,-0.52, -2.34, -4.99, 2.61, 2.03, 9.04, repro,
1997-05-25,8.13, 5.65, -15.88, 2.57, 1.90, 8.27, repro,
1997-05-26,5.52, 6.51, -21.87, 2.65, 1.92, 8.64, repro,
1997-05-27,-2.37, -5.93, 9.36, 2.75, 2.13, 9.46, repro,
1997-05-28,-3.63, -4.54, 2.84, 2.70, 2.03, 9.21, repro,
1997-05-29,-2.17, -2.81, 2.04, 2.67, 2.00, 8.81, repro,
1997-05-30,-0.18, -2.62, -5.65, 2.64, 1.97, 8.81, repro,
1997-05-31,0.49, 1.27, -7.26, 2.60, 1.90, 8.63, repro,
1997-06-01,-2.54, -1.01, -9.77, 2.63, 1.99, 9.00, repro,
1997-06-02,1.47, -0.14, -6.23, 2.64, 1.97, 8.93, repro,
1997-06-03,1.52, 3.53, -8.99, 9.03, 7.51, 28.47, repro,
1997-06-05,-0.06, -4.46, -13.24, 2.57, 1.95, 8.70, repro,
1997-06-06,-0.96, -4.00, -7.14, 2.56, 1.94, 8.70, repro,
1997-06-08,-1.90, -2.75, -8.01, 2.59, 1.99, 8.91, repro,
1997-06-09,-0.62, -5.32, -15.44, 2.71, 2.08, 9.28, repro,
1997-06-10,-0.86, -6.23, -0.47, 2.77, 2.22, 9.79, repro,
1997-06-11,-3.34, -4.46, -2.71, 2.67, 2.01, 9.05, repro,
1997-06-12,-2.60, -3.70, -10.45, 2.62, 1.96, 8.89, repro,
1997-06-13,0.07, -4.54, -9.55, 2.62, 1.99, 8.97, repro,
1997-06-15,-1.22, -2.32, -0.55, 2.65, 1.98, 8.94, repro,
1997-06-16,-0.64, -1.84, -1.87, 2.51, 1.89, 8.28, repro,
1997-06-17,8.04, 4.93, -7.20, 2.63, 1.97, 8.59, repro,
1997-06-18,8.85, 6.14, -21.14, 2.65, 1.99, 8.78, repro,
1997-06-19,2.47, 2.98, -16.38, 2.60, 1.94, 8.62, repro,
1997-06-20,-0.05, 1.38, -6.95, 8.93, 8.83, 36.35, repro,
1997-06-21,0.48, -4.28, -2.96, 2.61, 2.05, 9.08, repro,
1997-06-22,-0.89, -2.41, -5.14, 2.76, 2.02, 9.20, repro,
1997-06-23,-2.07, -3.72, -7.61, 2.61, 1.93, 8.57, repro,
1997-06-24,2.59, 2.04, -21.91, 2.58, 1.94, 8.63, repro,
1997-06-25,-1.11, -6.26, -5.63, 2.69, 2.08, 9.32, repro,
1997-06-26,0.19, -8.34, 8.87, 2.65, 2.00, 8.90, repro,
1997-06-27,0.07, -4.58, -5.25, 2.67, 2.09, 9.22, repro,
1997-06-28,-3.66, -7.48, 7.15, 2.71, 2.10, 9.47, repro,
1997-06-29,-0.62, -5.56, -2.43, 2.66, 1.99, 8.98, repro,
1997-06-30,-3.58, -9.89, 11.79, 2.65, 2.02, 9.12, repro,
1997-07-01,1.12, -2.68, -8.51, 2.69, 1.97, 8.91, repro,
1997-07-02,-3.62, -6.97, 2.49, 2.76, 2.14, 9.41, repro,
1997-07-03,-2.15, -11.21, 4.96, 2.67, 2.12, 9.58, repro,
1997-07-05,-0.73, -11.53, 7.38, 2.87, 2.06, 9.37, repro,
1997-07-06,-3.56, -13.29, 11.37, 2.69, 2.04, 9.24, repro,
1997-07-07,-2.81, -9.42, 1.71, 2.62, 2.00, 8.89, repro,
1997-07-08,-1.61, -9.75, 8.23, 2.65, 2.06, 9.32, repro,
1997-07-09,-1.13, -10.93, 3.25, 2.70, 1.99, 8.80, repro,
1997-07-10,1.27, -11.14, 1.07, 2.62, 1.96, 8.87, repro,
1997-07-11,-2.15, -9.91, 1.90, 2.62, 2.01, 9.04, repro,
1997-07-12,-1.73, -8.13, -3.55, 2.62, 1.96, 8.87, repro,
1997-07-13,-1.96, -10.29, 0.32, 2.53, 1.92, 8.53, repro,
1997-07-14,-0.95, -10.42, -0.77, 2.66, 1.97, 8.92, repro,
1997-07-15,-2.69, -9.89, -1.58, 2.63, 1.97, 9.02, repro,
1997-07-16,0.09, -10.48, -2.80, 2.67, 1.98, 8.99, repro,
1997-07-17,-0.59, -10.56, -0.59, 2.62, 1.95, 8.73, repro,
1997-07-18,-1.20, -12.51, -2.71, 2.58, 1.94, 8.71, repro,
1997-07-19,-0.71, -12.38, -2.94, 2.61, 1.97, 8.81, repro,
1997-07-20,-0.83, -9.41, 1.45, 2.61, 1.93, 8.64, repro,
1997-07-21,-0.59, -9.74, 6.94, 2.55, 1.93, 8.51, repro,
1997-07-22,-1.89, -10.49, -3.54, 2.65, 1.99, 9.05, repro,
1997-07-23,-0.90, -10.46, 10.83, 2.98, 2.14, 10.16, repro,
1997-07-24,-2.41, -11.14, 2.34, 2.66, 1.99, 8.97, repro,
1997-07-25,-2.63, -8.92, 0.20, 2.62, 1.95, 8.67, repro,
1997-07-26,-2.93, -9.73, 9.71, 2.66, 1.94, 8.71, repro,
1997-07-27,-4.20, -12.31, 11.20, 2.59, 1.97, 8.69, repro,
1997-07-28,-2.19, -9.76, 7.02, 2.55, 1.91, 8.45, repro,
1997-07-29,-1.46, -10.77, 4.78, 2.66, 1.93, 8.76, repro,
1997-07-30,-3.02, -9.29, 3.01, 2.64, 1.96, 8.74, repro,
1997-07-31,-1.85, -9.02, 1.91, 2.65, 2.03, 8.80, repro,
1997-08-01,-3.96, -11.52, 1.59, 2.59, 2.03, 8.81, repro,
1997-08-02,-2.13, -11.06, 1.85, 2.53, 1.94, 8.45, repro,
1997-08-03,-2.20, -8.17, -6.98, 2.56, 1.93, 8.47, repro,
1997-08-04,-4.50, -9.79, 2.14, 2.65, 1.96, 8.70, repro,
1997-08-05,-3.03, -9.33, 2.25, 2.57, 1.99, 8.66, repro,
1997-08-06,0.76, -10.21, -6.24, 2.57, 1.97, 8.45, repro,
1997-08-07,-1.68, -11.33, 6.04, 2.57, 1.94, 8.59, repro,
1997-08-08,-3.37, -9.22, 10.71, 2.66, 1.97, 8.74, repro,
1997-08-09,-0.08, -10.18, 7.59, 2.54, 1.90, 8.38, repro,
1997-08-10,-1.48, -9.89, 4.22, 2.56, 1.92, 8.35, repro,
1997-08-11,-0.68, -10.74, -4.07, 2.55, 1.93, 8.24, repro,
1997-08-12,-1.99, -11.81, 3.84, 2.64, 1.95, 8.65, repro,
1997-08-13,-2.88, -10.59, 7.83, 2.66, 1.98, 8.74, repro,
1997-08-14,-1.54, -10.11, 9.33, 2.53, 1.87, 8.27, repro,
1997-08-15,-5.62, -9.60, 11.22, 2.58, 1.92, 8.32, repro,
1997-08-16,-1.46, -11.03, 3.54, 2.57, 1.93, 8.42, repro,
1997-08-17,-1.98, -13.43, 3.59, 2.62, 1.97, 8.72, repro,
1997-08-18,-2.87, -10.40, 0.66, 2.55, 1.97, 8.48, repro,
1997-08-20,-5.06, -10.24, 8.12, 2.62, 1.99, 8.77, repro,
1997-08-21,-3.71, -11.95, 3.48, 2.56, 1.93, 8.40, repro,
1997-08-22,-1.91, -10.84, 3.40, 2.62, 1.95, 8.73, repro,
1997-08-23,-2.36, -10.96, 13.25, 2.62, 1.92, 8.58, repro,
1997-08-24,-4.38, -10.66, 10.16, 2.57, 1.92, 8.38, repro,
1997-08-25,-5.02, -9.10, 5.88, 2.65, 1.95, 8.65, repro,
1997-08-26,-3.80, -11.06, 4.38, 2.52, 1.91, 8.42, repro,
1997-08-27,-6.48, -8.02, 9.70, 2.69, 1.97, 8.90, repro,
1997-08-28,-2.47, -8.51, -1.35, 2.59, 1.93, 8.58, repro,
1997-08-29,-0.28, -10.31, 0.99, 2.60, 1.89, 8.45, repro,
1997-08-30,-3.32, -12.08, 15.20, 2.55, 2.00, 8.74, repro,
1997-09-01,-3.72, -11.54, 9.77, 2.54, 1.97, 8.60, repro,
1997-09-02,-1.59, -8.84, -1.80, 2.57, 1.92, 8.45, repro,
1997-09-03,-2.64, -10.76, 12.21, 2.53, 1.93, 8.44, repro,
1997-09-04,-3.02, -9.14, 6.91, 2.60, 1.94, 8.52, repro,
1997-09-05,-4.02, -11.93, 16.07, 2.67, 2.06, 8.90, repro,
1997-09-06,-17.98, -9.17, -68.76, 125.05, 138.31, 463.67, repro,
1997-09-07,-1.07, -10.28, 9.11, 2.55, 1.94, 8.49, repro,
1997-09-08,-1.30, -11.71, 12.41, 2.60, 2.08, 9.07, repro,
1997-09-09,-1.96, -12.54, 14.40, 2.57, 2.02, 9.00, repro,
1997-09-10,-2.07, -11.73, -4.73, 2.56, 1.97, 8.79, repro,
1997-09-11,-3.95, -10.45, 5.53, 2.62, 1.98, 8.90, repro,
1997-09-13,-3.69, -10.86, 6.85, 2.56, 1.93, 8.56, repro,
1997-09-14,-1.53, -9.38, 9.24, 2.52, 1.93, 8.51, repro,
1997-09-15,-1.90, -8.54, 4.49, 2.71, 2.06, 9.07, repro,
1997-09-16,-4.18, -10.29, 2.57, 2.54, 1.89, 8.42, repro,
1997-09-17,-5.92, -10.21, 16.09, 2.55, 1.94, 8.57, repro,
1997-09-18,-2.47, -10.86, -7.17, 2.57, 1.97, 8.54, repro,
1997-09-19,-0.80, -8.86, -2.53, 2.52, 1.92, 8.35, repro,
1997-09-21,-1.23, -11.47, -0.76, 2.58, 1.96, 8.71, repro,
1997-09-22,-1.26, -10.44, 1.88, 2.60, 2.03, 9.14, repro,
1997-09-23,-0.79, -11.15, 10.52, 2.72, 2.07, 9.14, repro,
1997-09-24,-0.61, -10.33, 2.01, 2.52, 1.96, 8.50, repro,
1997-09-25,-4.53, -12.55, 17.30, 2.67, 2.16, 9.51, repro,
1997-09-26,-1.73, -8.60, 2.18, 2.59, 1.99, 8.79, repro,
1997-09-27,-6.47, -12.20, 14.09, 2.66, 2.05, 9.14, repro,
1997-09-29,-1.55, -8.87, -2.55, 2.70, 2.08, 8.90, repro,
1997-09-30,-0.72, -11.12, 9.94, 2.53, 1.92, 8.38, repro,
1997-10-01,-2.97, -9.40, 25.81, 2.62, 2.02, 8.85, repro,
1997-10-02,-2.06, -8.39, 14.33, 2.54, 1.96, 8.55, repro,
1997-10-03,-4.10, -12.86, 25.55, 2.59, 1.93, 8.61, repro,
1997-10-04,-4.44, -8.82, 4.78, 2.66, 1.99, 8.89, repro,
1997-10-05,-4.94, -11.85, 20.15, 2.60, 2.00, 8.77, repro,
1997-10-06,4.03, -2.77, 2.77, 2.49, 1.89, 8.20, repro,
1997-10-07,-0.74, -11.43, 12.94, 2.61, 1.99, 9.07, repro,
1997-10-08,-3.72, -9.70, 5.32, 2.53, 1.93, 8.52, repro,
1997-10-10,-2.06, -9.19, -4.97, 2.64, 2.00, 8.93, repro,
1997-10-11,7.30, 0.80, 1.18, 2.70, 2.02, 8.49, repro,
1997-10-12,-3.37, -10.91, 0.88, 2.50, 1.89, 8.21, repro,
1997-10-13,-0.89, -8.65, -3.38, 2.62, 1.95, 8.51, repro,
1997-10-14,-2.67, -10.09, -8.59, 2.62, 1.97, 8.74, repro,
1997-10-15,-1.71, -7.94, -4.20, 2.73, 2.04, 9.05, repro,
1997-10-16,0.63, -10.82, -6.57, 2.65, 2.02, 8.94, repro,
1997-10-17,-2.29, -12.87, 5.49, 2.70, 2.08, 9.07, repro,
1997-10-18,0.89, -10.03, -7.27, 2.63, 1.98, 8.70, repro,
1997-10-19,1.91, -9.46, -9.87, 2.62, 2.03, 8.91, repro,
1997-10-20,0.59, -10.77, 1.57, 2.73, 2.00, 8.84, repro,
1997-10-21,-0.06, -9.42, 0.50, 2.74, 1.99, 8.95, repro,
1997-10-22,0.29, -7.98, -1.98, 2.59, 1.97, 8.69, repro,
1997-10-23,-1.49, -8.66, 0.14, 2.70, 1.99, 8.70, repro,
1997-10-24,-1.31, -9.98, 0.66, 2.66, 1.94, 8.70, repro,
1997-10-25,1.87, -9.09, -17.91, 2.72, 1.94, 8.75, repro,
1997-10-27,-2.16, -12.94, 1.27, 2.70, 2.02, 9.05, repro,
1997-10-28,1.41, -11.43, -6.39, 2.82, 2.04, 9.15, repro,
1997-10-29,-3.12, -10.74, 16.19, 2.82, 2.08, 9.74, repro,
1997-10-30,-2.43, -11.49, -1.89, 2.72, 1.97, 8.87, repro,
1997-11-01,-2.16, -8.52, -0.45, 2.82, 2.11, 9.16, repro,
1997-11-02,-1.99, -10.99, -3.25, 2.68, 2.07, 9.42, repro,
1997-11-03,-0.72, -10.40, -8.06, 2.85, 2.19, 9.69, repro,
1997-11-04,1.81, -11.02, -10.81, 2.76, 2.09, 9.15, repro,
1997-11-07,-1.03, -9.45, -6.66, 2.90, 2.16, 9.57, repro,
1997-11-08,0.19, -8.69, -6.83, 2.55, 1.94, 8.55, repro,
1997-11-09,1.07, -8.99, -5.80, 2.83, 2.23, 9.38, repro,
1997-11-11,-1.87, -8.09, 7.40, 3.71, 3.05, 12.75, repro,
1997-11-16,2.29, -10.18, -10.14, 2.81, 2.09, 9.21, repro,
1997-11-17,-4.34, -6.17, -0.27, 2.69, 2.16, 9.64, repro,
1997-11-18,-1.24, -11.63, 5.25, 2.58, 2.01, 8.89, repro,
1997-11-19,2.16, -7.39, 9.64, 2.98, 2.27, 9.84, repro,
1997-11-21,2.89, -6.78, -6.76, 3.34, 2.45, 10.72, repro,
1997-11-22,-2.23, -8.44, 3.44, 2.90, 2.11, 9.61, repro,
1997-11-23,1.51, -11.73, 19.49, 2.92, 2.13, 9.72, repro,
1997-11-24,-2.98, -11.34, 9.53, 2.70, 2.02, 9.12, repro,
1997-11-25,-3.96, -6.53, 7.24, 2.74, 2.15, 9.41, repro,
1997-11-26,0.51, -9.21, 2.71, 2.83, 2.14, 9.71, repro,
1997-11-27,1.07, -10.55, 4.27, 2.64, 2.10, 9.07, repro,
1997-11-28,-1.75, -7.53, -3.88, 2.66, 1.98, 8.90, repro,
1997-11-29,-1.70, -7.08, -4.25, 2.69, 2.00, 8.86, repro,
1997-12-01,-0.08, -8.71, -4.86, 2.83, 2.12, 9.59, repro,
1997-12-02,1.40, -6.15, -4.30, 2.59, 1.99, 8.66, repro,
1997-12-03,2.47, -6.89, -16.20, 2.84, 2.07, 9.41, repro,
1997-12-05,1.30, -8.10, -2.04, 2.74, 2.03, 9.15, repro,
1997-12-06,-0.39, -6.91, -8.56, 2.86, 2.14, 9.41, repro,
1997-12-07,0.63, -11.59, 2.84, 2.61, 2.11, 8.82, repro,
1997-12-08,-0.12, -9.03, 2.57, 2.83, 2.16, 9.60, repro,
1997-12-10,0.62, -6.30, -7.40, 2.82, 2.01, 9.28, repro,
1997-12-11,-0.54, -8.36, -16.45, 2.64, 2.03, 8.82, repro,
1997-12-12,-0.29, -6.33, -11.07, 2.64, 2.05, 8.75, repro,
1997-12-13,2.28, -7.26, -10.70, 2.64, 1.97, 8.76, repro,
1997-12-14,-2.84, -8.01, -2.82, 2.59, 1.97, 8.61, repro,
1997-12-15,0.35, -9.39, 0.09, 2.86, 2.09, 9.31, repro,
1997-12-16,0.40, -6.48, -1.94, 2.73, 2.06, 8.89, repro,
1997-12-17,0.61, -9.53, -1.50, 2.70, 2.02, 8.74, repro,
1997-12-19,-1.50, -5.85, -8.63, 2.73, 2.19, 9.19, repro,
1997-12-21,0.39, -7.42, -8.80, 2.53, 1.99, 8.47, repro,
1997-12-22,0.21, -10.38, -16.77, 3.46, 2.74, 12.44, repro,
1997-12-24,2.39, -9.73, -9.87, 2.61, 2.02, 8.57, repro,
1997-12-25,-1.46, -8.67, -3.14, 5.52, 3.80, 18.40, repro,
1997-12-26,2.56, -8.13, -8.45, 2.58, 1.92, 8.41, repro,
1997-12-28,-1.04, -8.91, -10.22, 2.79, 2.27, 9.39, repro,
1997-12-30,1.55, -7.77, -12.08, 2.75, 2.21, 9.35, repro,
1997-12-31,2.76, -8.66, -6.52, 2.52, 1.97, 8.36, repro,
1998-01-01,0.14, -8.60, -3.51, 2.61, 2.00, 8.62, repro,
1998-01-02,-3.20, -9.63, -5.41, 2.71, 2.20, 9.44, repro,
1998-01-03,0.75, -10.25, -11.19, 2.55, 1.92, 8.50, repro,
1998-01-04,1.63, -8.72, -8.74, 2.48, 1.93, 8.24, repro,
1998-01-05,-1.02, -7.44, -17.10, 2.65, 2.10, 9.02, repro,
1998-01-06,-1.97, -8.36, -7.15, 2.70, 2.17, 9.42, repro,
1998-01-07,1.39, -8.34, -14.22, 2.71, 2.20, 9.42, repro,
1998-01-08,-0.65, -11.15, -14.72, 2.80, 2.22, 9.71, repro,
1998-01-09,-1.38, -8.00, -8.51, 2.52, 2.03, 8.68, repro,
1998-01-10,-0.82, -6.67, -13.97, 2.55, 1.95, 8.44, repro,
1998-01-11,2.40, -13.53, -10.76, 2.60, 2.05, 8.67, repro,
1998-01-12,15.56, -18.20, -18.68, 2.74, 2.23, 9.18, repro,
1998-01-14,-1.25, -8.77, -9.03, 2.53, 1.94, 8.54, repro,
1998-01-15,0.45, -6.79, -9.82, 2.65, 2.05, 8.84, repro,
1998-01-16,-1.03, -7.21, -8.53, 2.72, 2.16, 9.25, repro,
1998-01-17,-2.48, -9.10, -1.27, 2.55, 1.96, 8.53, repro,
1998-01-21,1.25, -7.41, -14.50, 2.64, 1.97, 8.61, repro,
1998-01-22,1.15, -8.26, -6.32, 2.67, 2.01, 9.08, repro,
1998-01-23,-0.61, -7.35, -3.75, 2.78, 2.15, 9.26, repro,
1998-01-24,-0.92, -7.32, -1.34, 2.66, 2.16, 8.93, repro,
1998-01-25,-2.70, -6.57, 4.65, 2.57, 1.92, 8.53, repro,
1998-01-26,1.06, -6.97, -16.28, 2.54, 1.87, 8.38, repro,
1998-01-27,2.36, -6.93, -14.87, 2.66, 2.04, 8.86, repro,
1998-01-28,0.13, -7.09, -4.57, 2.57, 1.96, 8.55, repro,
1998-01-29,-1.24, -6.21, -9.79, 2.55, 1.98, 8.51, repro,
1998-01-30,0.43, -7.50, -15.65, 2.87, 2.27, 10.17, repro,
1998-02-05,0.01, -11.28, -15.49, 6.47, 5.10, 21.86, repro,
1998-02-06,-0.63, -9.19, -4.71, 2.45, 1.91, 8.23, repro,
1998-02-07,0.35, -8.63, -10.67, 2.48, 1.87, 8.13, repro,
1998-02-08,0.37, -9.41, -12.73, 2.57, 2.03, 8.81, repro,
1998-02-09,-3.83, -10.19, -6.24, 2.60, 1.97, 8.66, repro,
1998-02-10,-1.25, -8.18, -12.80, 2.53, 1.92, 8.41, repro,
1998-02-11,-2.12, -9.29, -20.74, 2.61, 1.97, 8.73, repro,
1998-02-12,-1.41, -8.83, -3.06, 2.54, 1.89, 8.33, repro,
1998-02-13,-0.88, -8.37, -9.33, 2.51, 1.87, 8.31, repro,
1998-02-14,-0.84, -9.20, -2.96, 2.51, 1.93, 8.47, repro,
1998-02-15,-0.86, -8.79, 1.42, 2.55, 1.97, 8.60, repro,
1998-02-16,0.98, -8.04, -9.61, 2.50, 1.97, 8.54, repro,
1998-02-17,-1.65, -8.86, -0.66, 2.71, 1.96, 8.80, repro,
1998-02-18,-6.20, -9.14, -6.09, 2.77, 2.24, 9.58, repro,
1998-02-19,-0.99, -10.67, -0.05, 2.53, 1.97, 8.59, repro,
1998-02-20,0.07, -9.20, -6.70, 2.63, 2.02, 8.84, repro,
1998-02-21,-2.20, -11.14, -3.70, 2.53, 1.91, 8.47, repro,
1998-02-22,-3.51, -11.85, -8.65, 2.58, 1.97, 8.58, repro,
1998-02-23,-3.68, -9.90, -11.76, 2.41, 1.82, 7.99, repro,
1998-02-24,0.85, -9.53, -8.72, 2.47, 1.88, 8.17, repro,
1998-02-25,2.26, -9.76, -1.33, 2.48, 1.90, 8.38, repro,
1998-02-26,-1.54, -8.40, -13.53, 2.48, 1.94, 8.46, repro,
1998-02-27,-1.00, -9.14, -12.79, 2.47, 1.97, 8.68, repro,
1998-02-28,0.04, -8.43, -15.06, 2.56, 1.96, 8.75, repro,
1998-03-01,-2.08, -8.29, -28.17, 2.53, 1.95, 8.53, repro,
1998-03-02,0.75, -9.51, -8.91, 2.48, 1.94, 8.50, repro,
1998-03-03,2.45, -8.73, -8.29, 2.55, 2.00, 8.63, repro,
1998-03-04,-1.03, -8.32, -16.42, 2.44, 1.87, 8.11, repro,
1998-03-06,-0.36, -8.96, -11.50, 2.43, 1.86, 8.12, repro,
1998-03-07,0.61, -9.30, -9.48, 2.49, 1.95, 8.45, repro,
1998-03-08,-0.36, -9.41, -20.93, 2.47, 1.90, 8.36, repro,
1998-03-09,-0.41, -7.52, -18.75, 2.44, 1.85, 8.08, repro,
1998-03-10,1.19, -8.50, -19.39, 2.57, 2.01, 8.79, repro,
1998-03-11,-1.82, -9.52, -15.97, 2.54, 1.98, 8.56, repro,
1998-03-12,-0.78, -7.72, -19.16, 2.46, 1.92, 8.35, repro,
1998-03-13,-0.68, -8.35, -18.21, 2.51, 1.96, 8.52, repro,
1998-03-14,1.80, -6.94, -18.31, 2.50, 1.94, 8.43, repro,
1998-03-15,0.07, -8.41, -19.24, 2.48, 1.92, 8.45, repro,
1998-03-16,2.06, -8.58, -8.99, 2.47, 1.97, 8.55, repro,
1998-03-17,-0.47, -6.46, -20.49, 2.41, 1.87, 8.16, repro,
1998-03-18,0.48, -6.90, -15.46, 2.53, 1.97, 8.52, repro,
1998-03-19,0.24, -5.44, -4.79, 3.57, 2.83, 12.68, repro,
1998-03-20,0.31, -6.97, -11.70, 2.48, 1.93, 8.43, repro,
1998-03-21,-0.13, -9.55, -1.20, 2.45, 1.88, 8.29, repro,
1998-03-22,-1.35, -7.98, -13.01, 2.43, 1.90, 8.37, repro,
1998-03-23,1.14, -7.51, -2.34, 2.45, 1.94, 8.43, repro,
1998-03-24,0.73, -7.75, -1.91, 2.54, 1.98, 8.58, repro,
1998-03-25,-2.28, -8.91, -6.31, 2.45, 1.88, 8.21, repro,
1998-03-26,-0.11, -8.68, -7.55, 2.45, 1.83, 8.02, repro,
1998-03-27,0.57, -8.99, -5.40, 2.50, 1.91, 8.28, repro,
1998-03-28,-0.16, -7.51, -5.18, 2.46, 1.86, 8.03, repro,
1998-03-29,0.37, -7.55, -14.42, 2.46, 1.88, 8.24, repro,
1998-03-30,2.04, -7.90, -8.04, 2.55, 1.94, 8.54, repro,
1998-03-31,0.79, -9.39, -9.89, 2.73, 2.13, 9.53, repro,
1998-04-01,-0.79, -9.27, -10.39, 2.50, 1.94, 8.53, repro,
1998-04-02,-0.72, -8.35, -5.14, 2.47, 1.94, 8.33, repro,
1998-04-03,1.26, -6.92, -15.24, 2.42, 1.87, 8.09, repro,
1998-04-04,-2.34, -7.46, -4.86, 2.49, 1.92, 8.45, repro,
1998-04-05,-2.22, -8.51, -5.96, 2.54, 1.92, 8.49, repro,
1998-04-06,-1.04, -7.15, -13.47, 2.63, 2.04, 8.75, repro,
1998-04-07,1.40, -8.06, -10.14, 2.85, 2.27, 9.44, repro,
1998-04-08,-1.34, -8.21, -14.05, 2.56, 2.00, 8.61, repro,
1998-04-09,1.49, -6.02, -20.70, 2.48, 1.89, 8.26, repro,
1998-04-10,0.17, -9.30, -10.25, 2.60, 1.97, 8.63, repro,
1998-04-11,2.27, -12.43, -0.50, 2.74, 2.11, 9.29, repro,
1998-04-12,-0.26, -8.51, -1.14, 2.50, 1.99, 8.55, repro,
1998-04-13,-0.20, -8.55, -10.48, 2.49, 1.94, 8.36, repro,
1998-04-14,1.02, -6.10, -19.76, 2.42, 1.88, 8.20, repro,
1998-04-15,2.66, -7.97, -9.11, 2.53, 1.96, 8.54, repro,
1998-04-16,0.16, -7.33, -9.89, 2.54, 1.94, 8.51, repro,
1998-04-17,-1.19, -7.23, -9.85, 2.50, 1.97, 8.52, repro,
1998-04-18,2.10, -9.36, -9.84, 2.46, 1.94, 8.53, repro,
1998-04-19,0.08, -8.59, -14.32, 2.43, 1.91, 8.35, repro,
1998-04-20,2.23, -7.18, -14.44, 2.37, 1.85, 8.03, repro,
1998-04-21,-0.05, -9.25, -9.12, 2.58, 2.02, 8.83, repro,
1998-04-22,0.01, -6.79, -11.22, 2.49, 1.98, 8.48, repro,
1998-04-23,1.72, -7.44, -2.14, 2.41, 1.89, 8.34, repro,
1998-04-25,0.61, -8.26, -12.64, 2.36, 1.85, 8.02, repro,
1998-04-26,-0.20, -9.18, -6.65, 2.39, 1.84, 8.14, repro,
1998-04-27,0.02, -8.10, -6.32, 2.39, 1.87, 8.23, repro,
1998-04-28,-0.44, -7.68, 21.33, 7.89, 6.01, 26.27, repro,
1998-04-29,0.98, -9.05, -1.27, 2.49, 1.95, 8.61, repro,
1998-04-30,3.52, -7.55, -1.90, 2.46, 2.05, 9.02, repro,
1998-05-02,0.91, -7.53, 4.61, 2.48, 1.90, 8.35, repro,
1998-05-03,0.27, -6.61, 2.65, 2.47, 1.90, 8.38, repro,
1998-05-04,2.38, -8.72, 3.42, 2.59, 2.02, 8.95, repro,
1998-05-05,2.10, -7.95, -2.11, 2.41, 1.86, 8.16, repro,
1998-05-07,0.73, -8.76, 2.40, 2.42, 1.89, 8.39, repro,
1998-05-08,0.33, -7.92, 3.38, 2.46, 1.89, 8.37, repro,
1998-05-09,1.28, -9.02, 4.16, 2.41, 1.87, 8.27, repro,
1998-05-10,0.24, -8.01, 4.36, 2.38, 1.88, 8.29, repro,
1998-05-11,0.66, -8.17, -1.83, 2.52, 1.98, 8.55, repro,
1998-05-12,0.85, -7.75, 10.56, 2.37, 1.85, 8.18, repro,
1998-05-13,0.54, -9.41, 2.71, 2.40, 1.88, 8.11, repro,
1998-05-14,0.38, -8.26, 9.84, 2.42, 1.84, 8.08, repro,
1998-05-15,-0.89, -7.94, 2.00, 2.40, 1.82, 8.12, repro,
1998-05-16,0.92, -8.55, 1.35, 2.40, 1.88, 8.29, repro,
1998-05-17,0.52, -9.75, 4.50, 2.48, 1.97, 8.73, repro,
1998-05-18,1.17, -8.22, -2.23, 2.47, 1.94, 8.62, repro,
1998-05-19,3.61, -7.41, -4.22, 2.41, 1.90, 8.31, repro,
1998-05-20,2.07, -8.01, 2.71, 2.44, 1.89, 8.30, repro,
1998-05-21,4.05, -6.32, -2.81, 2.53, 1.92, 8.51, repro,
1998-05-22,0.35, -5.06, -3.30, 2.45, 1.92, 8.38, repro,
1998-05-23,1.84, -6.55, -3.85, 2.54, 2.01, 8.73, repro,
1998-05-24,-0.32, -7.41, -5.20, 2.44, 1.96, 8.52, repro,
1998-05-25,0.94, -8.31, -2.04, 2.41, 1.91, 8.40, repro,
1998-05-26,0.75, -8.51, -3.61, 2.46, 1.95, 8.37, repro,
1998-05-27,0.43, -8.53, 4.75, 2.53, 1.95, 8.68, repro,
1998-05-28,0.33, -7.51, -0.22, 2.45, 1.97, 8.70, repro,
1998-05-29,1.89, -7.50, -5.07, 2.49, 1.95, 8.56, repro,
1998-05-30,1.84, -6.86, -9.08, 2.48, 1.88, 8.41, repro,
1998-05-31,3.04, -6.91, -10.35, 2.40, 1.92, 8.40, repro,
1998-06-01,3.96, -6.27, -3.68, 2.41, 1.90, 8.25, repro,
1998-06-02,3.00, -5.47, -6.24, 2.36, 1.82, 7.96, repro,
1998-06-03,3.72, -4.96, -5.10, 2.43, 1.93, 8.39, repro,
1998-06-04,3.50, -5.43, -9.44, 2.40, 1.88, 8.20, repro,
1998-06-05,1.68, -6.85, -7.42, 2.51, 2.02, 8.82, repro,
1998-06-06,0.52, -9.63, 3.92, 2.43, 1.93, 8.44, repro,
1998-06-07,2.53, -7.90, 4.91, 2.41, 1.92, 8.44, repro,
1998-06-08,1.54, -6.69, 4.13, 2.41, 1.91, 8.42, repro,
1998-06-09,0.71, -5.67, -1.12, 2.40, 1.90, 8.40, repro,
1998-06-10,-0.82, -7.56, 10.37, 2.45, 1.92, 8.28, repro,
1998-06-11,-0.25, -8.14, 3.79, 2.48, 1.94, 8.60, repro,
1998-06-12,-0.09, -8.76, 11.59, 2.45, 1.93, 8.48, repro,
1998-06-13,1.25, -5.89, -1.60, 2.42, 1.87, 8.16, repro,
1998-06-14,-0.32, -6.39, -4.03, 2.44, 1.92, 8.35, repro,
1998-06-15,-2.01, -9.68, 7.77, 2.52, 2.02, 8.78, repro,
1998-06-16,1.23, -7.42, 1.76, 2.50, 2.02, 8.75, repro,
1998-06-17,0.51, -6.70, -3.94, 2.42, 1.92, 8.38, repro,
1998-06-18,-0.15, -6.14, -3.49, 2.38, 1.82, 8.00, repro,
1998-06-19,1.31, -6.52, -7.99, 2.45, 1.91, 8.29, repro,
1998-06-20,2.23, -7.82, -1.08, 2.45, 1.91, 8.45, repro,
1998-06-21,1.23, -5.44, 0.43, 2.46, 1.95, 8.52, repro,
1998-06-22,2.29, -8.10, 1.76, 2.45, 1.89, 8.43, repro,
1998-06-24,-1.40, -6.75, 2.61, 2.51, 2.00, 8.86, repro,
1998-06-25,-0.10, -9.19, 2.65, 2.55, 1.93, 8.60, repro,
1998-06-26,-0.71, -8.04, 5.31, 2.51, 2.03, 8.80, repro,
1998-06-27,1.34, -6.99, -0.23, 2.48, 2.00, 8.59, repro,
1998-06-28,2.76, -9.61, 1.48, 2.46, 1.98, 8.65, repro,
1998-06-29,2.78, -6.28, -8.82, 2.50, 1.98, 8.58, repro,
1998-06-30,-0.57, -6.66, -11.37, 2.44, 1.88, 8.32, repro,
1998-07-01,1.87, -6.64, 1.05, 2.53, 1.99, 8.89, repro,
1998-07-02,0.56, -6.40, 7.19, 2.38, 1.85, 8.03, repro,
1998-07-03,-1.49, -7.61, 6.63, 2.44, 1.91, 8.52, repro,
1998-07-04,0.02, -6.57, 7.10, 2.49, 2.03, 8.94, repro,
1998-07-05,-0.40, -7.85, -5.49, 2.44, 1.88, 8.30, repro,
1998-07-06,0.06, -8.08, 6.64, 2.55, 2.02, 9.04, repro,
1998-07-07,2.69, -6.72, -5.90, 2.52, 1.96, 8.74, repro,
1998-07-08,1.50, -7.75, 1.09, 2.60, 2.06, 9.11, repro,
1998-07-09,0.57, -6.78, 2.76, 2.54, 2.05, 9.00, repro,
1998-07-10,1.42, -8.59, -6.27, 2.66, 2.15, 9.68, repro,
1998-07-11,1.57, -7.86, -2.17, 2.45, 1.86, 8.30, repro,
1998-07-12,1.83, -6.33, -5.30, 2.48, 1.98, 8.76, repro,
1998-07-13,-0.04, -7.65, 4.54, 2.43, 2.04, 9.03, repro,
1998-07-14,0.56, -7.86, 3.51, 2.45, 1.92, 8.51, repro,
1998-07-15,-2.50, -7.47, 11.60, 2.48, 1.94, 8.66, repro,
1998-07-16,-2.44, -6.81, -4.65, 2.44, 1.93, 8.52, repro,
1998-07-17,-1.35, -7.08, 2.02, 2.49, 1.93, 8.55, repro,
1998-07-18,-0.65, -6.98, 1.71, 2.42, 1.89, 8.34, repro,
1998-07-19,-0.71, -5.24, 5.68, 2.48, 1.95, 8.64, repro,
1998-07-20,0.94, -8.11, -0.47, 2.54, 2.05, 9.27, repro,
1998-07-21,-0.03, -9.18, 1.48, 2.52, 2.09, 9.38, repro,
1998-07-22,-0.97, -8.82, 9.94, 2.66, 2.12, 9.39, repro,
1998-07-23,-0.13, -6.97, 10.95, 2.61, 2.02, 8.97, repro,
1998-07-24,-1.63, -8.29, 10.62, 2.48, 2.01, 8.91, repro,
1998-07-25,-0.87, -8.93, 0.79, 2.49, 2.01, 8.90, repro,
1998-07-26,5.36, -1.57, -20.16, 2.44, 1.90, 8.32, repro,
1998-07-27,-0.59, -10.67, 4.67, 2.57, 2.03, 9.21, repro,
1998-07-28,0.02, -8.30, -6.84, 2.50, 2.00, 8.93, repro,
1998-07-29,-1.90, -10.04, -0.28, 2.44, 1.93, 8.50, repro,
1998-07-30,-3.45, -11.04, 12.04, 2.49, 1.99, 8.73, repro,
1998-07-31,-1.57, -10.65, -1.18, 2.52, 2.03, 8.97, repro,
1998-08-01,-2.69, -12.89, 11.34, 2.52, 2.03, 9.00, repro,
1998-08-02,-3.19, -10.32, -1.50, 2.53, 2.04, 9.18, repro,
1998-08-03,-2.35, -11.09, -0.33, 2.45, 1.99, 8.75, repro,
1998-08-04,-0.76, -11.54, 7.64, 2.75, 2.25, 9.94, repro,
1998-08-05,-2.88, -11.09, -3.52, 2.48, 1.95, 8.78, repro,
1998-08-06,-3.03, -13.11, 14.73, 2.49, 2.01, 8.82, repro,
1998-08-07,-0.12, -11.58, 1.68, 2.50, 1.99, 8.61, repro,
1998-08-08,-2.61, -12.77, 12.76, 2.42, 1.91, 8.36, repro,
1998-08-09,-1.29, -8.91, 1.01, 2.46, 1.93, 8.46, repro,
1998-08-10,-2.51, -9.28, 1.98, 2.45, 1.93, 8.45, repro,
1998-08-11,-2.74, -10.42, 2.52, 2.47, 2.00, 8.46, repro,
1998-08-12,-3.30, -10.37, 4.90, 2.43, 1.95, 8.55, repro,
1998-08-13,-0.70, -10.75, -3.69, 2.46, 1.93, 8.67, repro,
1998-08-14,-3.41, -12.56, 7.73, 2.46, 1.90, 8.35, repro,
1998-08-15,-2.98, -11.09, 12.97, 2.46, 1.95, 8.34, repro,
1998-08-16,-0.44, -10.22, -8.85, 2.57, 2.08, 9.01, repro,
1998-08-17,-1.37, -11.52, -5.94, 2.36, 1.85, 8.00, repro,
1998-08-18,-2.02, -9.10, 0.20, 2.47, 2.07, 8.89, repro,
1998-08-19,-4.91, -9.18, 6.43, 2.51, 1.97, 8.64, repro,
1998-08-20,-1.99, -11.72, -6.72, 2.48, 2.03, 8.89, repro,
1998-08-21,-1.93, -9.04, -7.15, 2.45, 2.00, 8.77, repro,
1998-08-22,-4.95, -12.78, 1.10, 2.48, 2.01, 8.74, repro,